FDX2901 KDEN-KLAX

Flight info

Callsign FDX2901
Flight time 1h 59m
Altitude 26000
Route BAYLR6 TEHRU JASSE Q90 DNERO ANJLL4
Aircraft B77L/H-SDE1E2E3FGHIJ2J3J4J5M1RWXY/LB1D1

Departure

Time 2026-05-05 00:36
Airport Denver International Airport (KDEN)

Arrival

Time 2026-05-05 02:35
Airport Los Angeles International Airport (KLAX)
Time Latitude Longitude Altitude Speed Heading
2026-05-05 00:05 39.83090 -104.67555 5393 ft 0 kts
2026-05-05 00:22 39.83071 -104.67555 5388 ft 4 kts 360°
2026-05-05 00:22 39.83045 -104.67555 5387 ft 3 kts 360°
2026-05-05 00:22 39.83023 -104.67558 5387 ft 4 kts 35°
2026-05-05 00:22 39.83012 -104.67583 5393 ft 4 kts 90°
2026-05-05 00:23 39.83013 -104.67609 5394 ft 1 kts 91°
2026-05-05 00:23 39.83013 -104.67613 5386 ft 13 kts 91°
2026-05-05 00:28 39.83013 -104.67595 5394 ft 3 kts 91°
2026-05-05 00:28 39.83012 -104.67571 5386 ft 3 kts 91°
2026-05-05 00:29 39.83011 -104.67522 5395 ft 7 kts 91°
2026-05-05 00:29 39.83011 -104.67450 5386 ft 13 kts 90°
2026-05-05 00:29 39.83008 -104.67325 5397 ft 14 kts 97°
2026-05-05 00:29 39.82971 -104.67209 5400 ft 14 kts 120°
2026-05-05 00:30 39.82909 -104.67116 5403 ft 14 kts 159°
2026-05-05 00:30 39.82852 -104.67025 5411 ft 14 kts 96°
2026-05-05 00:30 39.82848 -104.66899 5417 ft 14 kts 91°
2026-05-05 00:30 39.82847 -104.66773 5421 ft 14 kts 90°
2026-05-05 00:31 39.82847 -104.66647 5426 ft 14 kts 91°
2026-05-05 00:31 39.82846 -104.66520 5423 ft 14 kts 90°
2026-05-05 00:31 39.82845 -104.66394 5439 ft 14 kts 90°
2026-05-05 00:31 39.82844 -104.66268 5442 ft 14 kts 90°
2026-05-05 00:32 39.82844 -104.66215 5444 ft 0 kts 90°
2026-05-05 00:33 39.82844 -104.66214 5444 ft 1 kts 90°
2026-05-05 00:33 39.82844 -104.66170 5444 ft 6 kts 91°
2026-05-05 00:34 39.82843 -104.66112 5443 ft 6 kts 91°
2026-05-05 00:34 39.82863 -104.66066 5446 ft 6 kts 25°
2026-05-05 00:34 39.82907 -104.66057 5443 ft 7 kts
2026-05-05 00:34 39.82936 -104.66055 5445 ft 0 kts
2026-05-05 00:35 39.83013 -104.66053 5443 ft 39 kts
2026-05-05 00:36 39.83600 -104.66047 5433 ft 128 kts
2026-05-05 00:36 39.84776 -104.66032 5421 ft 206 kts
2026-05-05 00:36 39.86245 -104.65970 6343 ft 207 kts
2026-05-05 00:36 39.87702 -104.66224 6964 ft 218 kts 338°
2026-05-05 00:37 39.88904 -104.67543 6880 ft 247 kts 301°
2026-05-05 00:37 39.89312 -104.69785 7269 ft 264 kts 267°
2026-05-05 00:37 39.88699 -104.72033 7913 ft 268 kts 237°
2026-05-05 00:37 39.87591 -104.73933 8680 ft 261 kts 231°
2026-05-05 00:38 39.86442 -104.75805 9102 ft 269 kts 232°
2026-05-05 00:38 39.85225 -104.77752 9414 ft 285 kts 231°
2026-05-05 00:38 39.83918 -104.79765 9841 ft 296 kts 231°
2026-05-05 00:38 39.82606 -104.81824 10057 ft 297 kts 232°
2026-05-05 00:39 39.81341 -104.83989 9989 ft 302 kts 234°
2026-05-05 00:39 39.80067 -104.86177 9993 ft 300 kts 233°
2026-05-05 00:39 39.78805 -104.88293 9994 ft 297 kts 232°
2026-05-05 00:39 39.77588 -104.90435 9991 ft 292 kts 242°
2026-05-05 00:40 39.76957 -104.92916 10336 ft 292 kts 257°
2026-05-05 00:40 39.76426 -104.95576 10528 ft 315 kts 255°
2026-05-05 00:40 39.75800 -104.98415 10726 ft 339 kts 254°
2026-05-05 00:40 39.75120 -105.01458 10910 ft 362 kts 254°
2026-05-05 00:41 39.74333 -105.04633 11408 ft 375 kts 250°
2026-05-05 00:41 39.73318 -105.07784 12196 ft 380 kts 246°
2026-05-05 00:41 39.72237 -105.10920 13242 ft 379 kts 246°
2026-05-05 00:41 39.71163 -105.14052 14136 ft 381 kts 247°
2026-05-05 00:42 39.70083 -105.17230 14973 ft 385 kts 247°
2026-05-05 00:42 39.69013 -105.20436 15760 ft 389 kts 248°
2026-05-05 00:42 39.67946 -105.23685 16485 ft 394 kts 248°
2026-05-05 00:42 39.66872 -105.26967 17287 ft 395 kts 248°
2026-05-05 00:43 39.65794 -105.30255 18085 ft 398 kts 248°
2026-05-05 00:43 39.64701 -105.33579 18953 ft 401 kts 248°
2026-05-05 00:43 39.63597 -105.36903 19798 ft 401 kts 248°
2026-05-05 00:43 39.62507 -105.40261 20428 ft 407 kts 248°
2026-05-05 00:44 39.61389 -105.43640 21050 ft 409 kts 248°
2026-05-05 00:44 39.60255 -105.47038 21678 ft 413 kts 248°
2026-05-05 00:44 39.59125 -105.50448 22375 ft 413 kts 248°
2026-05-05 00:44 39.57983 -105.53885 22989 ft 416 kts 248°
2026-05-05 00:45 39.56830 -105.57347 23520 ft 420 kts 248°
2026-05-05 00:45 39.55669 -105.60825 24097 ft 423 kts 248°
2026-05-05 00:45 39.54551 -105.64357 24666 ft 425 kts 250°
2026-05-05 00:45 39.53534 -105.67957 25310 ft 425 kts 252°
2026-05-05 00:46 39.52559 -105.71577 25913 ft 426 kts 252°
2026-05-05 00:46 39.51592 -105.75185 26134 ft 427 kts 252°
2026-05-05 00:46 39.50599 -105.78858 26134 ft 436 kts 252°
2026-05-05 00:46 39.49579 -105.82579 26140 ft 441 kts 252°
2026-05-05 00:47 39.48543 -105.86320 26137 ft 442 kts 252°
2026-05-05 00:47 39.47503 -105.90061 26151 ft 441 kts 252°
2026-05-05 00:47 39.46459 -105.93799 26133 ft 442 kts 252°
2026-05-05 00:47 39.45415 -105.97534 26136 ft 442 kts 252°
2026-05-05 00:48 39.44367 -106.01273 26148 ft 442 kts 251°
2026-05-05 00:48 39.43321 -106.05011 26136 ft 442 kts 252°
2026-05-05 00:48 39.42277 -106.08737 26132 ft 441 kts 252°
2026-05-05 00:48 39.41233 -106.12457 26144 ft 439 kts 251°
2026-05-05 00:49 39.40185 -106.16170 26151 ft 440 kts 252°
2026-05-05 00:49 39.39137 -106.19888 26150 ft 440 kts 251°
2026-05-05 00:49 39.38086 -106.23610 26144 ft 440 kts 251°
2026-05-05 00:49 39.37036 -106.27322 26143 ft 441 kts 251°
2026-05-05 00:50 39.35982 -106.31045 26114 ft 441 kts 251°
2026-05-05 00:50 39.34925 -106.34769 26109 ft 441 kts 251°
2026-05-05 00:50 39.33867 -106.38489 26100 ft 441 kts 251°
2026-05-05 00:50 39.32811 -106.42202 26093 ft 440 kts 251°
2026-05-05 00:51 39.31754 -106.45914 26089 ft 440 kts 251°
2026-05-05 00:51 39.30699 -106.49614 26085 ft 440 kts 251°
2026-05-05 00:51 39.29642 -106.53314 26082 ft 440 kts 251°
2026-05-05 00:51 39.28583 -106.57020 26077 ft 440 kts 251°
2026-05-05 00:52 39.27519 -106.60738 26051 ft 440 kts 251°
2026-05-05 00:52 39.26460 -106.64440 26046 ft 440 kts 251°
2026-05-05 00:52 39.25396 -106.68136 26039 ft 439 kts 251°
2026-05-05 00:52 39.24333 -106.71830 26039 ft 439 kts 251°
2026-05-05 00:53 39.23269 -106.75526 26026 ft 440 kts 251°
2026-05-05 00:53 39.22204 -106.79221 26021 ft 440 kts 251°
2026-05-05 00:53 39.21139 -106.82917 26025 ft 440 kts 251°
2026-05-05 00:53 39.20074 -106.86612 26012 ft 440 kts 251°
2026-05-05 00:54 39.19012 -106.90303 26011 ft 439 kts 251°
2026-05-05 00:54 39.17947 -106.93997 26011 ft 439 kts 251°
2026-05-05 00:54 39.16886 -106.97681 26012 ft 438 kts 251°
2026-05-05 00:54 39.15827 -107.01366 26020 ft 439 kts 251°
2026-05-05 00:55 39.14768 -107.05053 26007 ft 439 kts 251°
2026-05-05 00:55 39.13708 -107.08735 26018 ft 438 kts 251°
2026-05-05 00:55 39.12646 -107.12421 26017 ft 439 kts 251°
2026-05-05 00:55 39.11583 -107.16105 26012 ft 439 kts 251°
2026-05-05 00:56 39.10524 -107.19782 26028 ft 438 kts 251°
2026-05-05 00:56 39.09464 -107.23458 26031 ft 439 kts 251°
2026-05-05 00:56 39.08405 -107.27143 26012 ft 439 kts 251°
2026-05-05 00:56 39.07352 -107.30800 26029 ft 439 kts 251°
2026-05-05 00:57 39.06293 -107.34483 26029 ft 440 kts 251°
2026-05-05 00:57 39.05230 -107.38181 26025 ft 439 kts 251°
2026-05-05 00:57 39.04171 -107.41867 26027 ft 439 kts 251°
2026-05-05 00:57 39.03114 -107.45550 26010 ft 439 kts 251°
2026-05-05 00:58 39.02056 -107.49229 25998 ft 439 kts 251°
2026-05-05 00:58 39.01009 -107.52870 25990 ft 439 kts 251°
2026-05-05 00:58 38.99935 -107.56606 25980 ft 439 kts 251°
2026-05-05 00:58 38.98877 -107.60282 25979 ft 439 kts 251°
2026-05-05 00:59 38.97832 -107.63915 25973 ft 439 kts 251°
2026-05-05 00:59 38.96774 -107.67586 25960 ft 438 kts 251°
2026-05-05 00:59 38.95714 -107.71264 25964 ft 438 kts 251°
2026-05-05 00:59 38.94656 -107.74934 25957 ft 438 kts 251°
2026-05-05 01:00 38.93599 -107.78604 25930 ft 439 kts 251°
2026-05-05 01:00 38.92538 -107.82287 25890 ft 439 kts 251°
2026-05-05 01:00 38.91481 -107.85956 25893 ft 439 kts 251°
2026-05-05 01:00 38.90423 -107.89629 25890 ft 438 kts 251°
2026-05-05 01:01 38.89350 -107.93344 25898 ft 438 kts 251°
2026-05-05 01:01 38.88308 -107.96955 25894 ft 437 kts 251°
2026-05-05 01:01 38.87255 -108.00605 25893 ft 437 kts 251°
2026-05-05 01:01 38.86200 -108.04263 25892 ft 436 kts 251°
2026-05-05 01:02 38.85148 -108.07912 25896 ft 436 kts 251°
2026-05-05 01:02 38.84096 -108.11560 25912 ft 436 kts 251°
2026-05-05 01:02 38.83046 -108.15209 25894 ft 437 kts 251°
2026-05-05 01:02 38.81995 -108.18865 25896 ft 437 kts 251°
2026-05-05 01:03 38.80942 -108.22521 25897 ft 437 kts 251°
2026-05-05 01:03 38.79754 -108.26120 25893 ft 439 kts 245°
2026-05-05 01:03 38.78203 -108.29494 25888 ft 441 kts 239°
2026-05-05 01:03 38.76418 -108.32703 25887 ft 443 kts 236°
2026-05-05 01:04 38.74402 -108.35704 25896 ft 445 kts 230°
2026-05-05 01:04 38.70147 -108.41455 25892 ft 444 kts 230°
2026-05-05 01:04 38.68019 -108.44323 25897 ft 444 kts 230°
2026-05-05 01:05 38.65894 -108.47192 25897 ft 445 kts 230°
2026-05-05 01:05 38.63771 -108.50063 25892 ft 445 kts 230°
2026-05-05 01:05 38.61645 -108.52947 25899 ft 445 kts 230°
2026-05-05 01:05 38.59499 -108.55859 25912 ft 444 kts 230°
2026-05-05 01:06 38.57410 -108.58695 25944 ft 444 kts 230°
2026-05-05 01:06 38.55289 -108.61573 25936 ft 444 kts 230°
2026-05-05 01:06 38.53174 -108.64439 25938 ft 444 kts 230°
2026-05-05 01:06 38.51055 -108.67308 25946 ft 444 kts 230°
2026-05-05 01:07 38.48938 -108.70174 25945 ft 444 kts 230°
2026-05-05 01:07 38.46820 -108.73039 25959 ft 443 kts 230°
2026-05-05 01:07 38.44703 -108.75899 25986 ft 443 kts 230°
2026-05-05 01:07 38.42585 -108.78756 25981 ft 443 kts 230°
2026-05-05 01:08 38.40468 -108.81607 25997 ft 443 kts 230°
2026-05-05 01:08 38.39038 -108.83531 25988 ft 443 kts 230°
2026-05-05 01:08 38.36914 -108.86386 25996 ft 443 kts 230°
2026-05-05 01:08 38.34797 -108.89235 25997 ft 443 kts 230°
2026-05-05 01:09 38.32677 -108.92084 25981 ft 443 kts 230°
2026-05-05 01:09 38.30552 -108.94936 25946 ft 444 kts 230°
2026-05-05 01:09 38.28424 -108.97785 25941 ft 444 kts 230°
2026-05-05 01:09 38.26298 -109.00633 25946 ft 444 kts 230°
2026-05-05 01:10 38.24174 -109.03479 25950 ft 443 kts 230°
2026-05-05 01:10 38.22051 -109.06319 25955 ft 443 kts 230°
2026-05-05 01:10 38.19925 -109.09158 25954 ft 443 kts 230°
2026-05-05 01:10 38.17799 -109.11994 25960 ft 443 kts 230°
2026-05-05 01:11 38.15673 -109.14827 25971 ft 443 kts 230°
2026-05-05 01:11 38.13551 -109.17653 25978 ft 442 kts 230°
2026-05-05 01:11 38.11430 -109.20479 25985 ft 442 kts 230°
2026-05-05 01:11 38.09307 -109.23303 25993 ft 442 kts 230°
2026-05-05 01:12 38.07182 -109.26127 25998 ft 442 kts 230°
2026-05-05 01:12 38.05057 -109.28947 25997 ft 442 kts 230°
2026-05-05 01:12 38.02932 -109.31765 26004 ft 442 kts 230°
2026-05-05 01:12 38.00838 -109.34539 26010 ft 442 kts 230°
2026-05-05 01:13 37.98684 -109.37389 26005 ft 441 kts 230°
2026-05-05 01:13 37.96565 -109.40190 26012 ft 440 kts 230°
2026-05-05 01:13 37.94449 -109.42987 26002 ft 438 kts 230°
2026-05-05 01:13 37.92372 -109.45729 26005 ft 437 kts 230°
2026-05-05 01:14 37.90236 -109.48547 26002 ft 437 kts 230°
2026-05-05 01:14 37.88163 -109.51280 26001 ft 436 kts 230°
2026-05-05 01:14 37.86082 -109.54020 25986 ft 437 kts 230°
2026-05-05 01:14 37.84042 -109.56705 25992 ft 437 kts 230°
2026-05-05 01:15 37.82094 -109.59267 25986 ft 438 kts 230°
2026-05-05 01:15 37.80238 -109.61707 25967 ft 438 kts 230°
2026-05-05 01:15 37.78160 -109.64433 25964 ft 438 kts 230°
2026-05-05 01:15 37.76041 -109.67212 25956 ft 439 kts 230°
2026-05-05 01:16 37.73922 -109.69988 25955 ft 439 kts 230°
2026-05-05 01:16 37.71805 -109.72760 25952 ft 439 kts 229°
2026-05-05 01:16 37.69687 -109.75531 25952 ft 439 kts 230°
2026-05-05 01:16 37.67570 -109.78297 25943 ft 439 kts 230°
2026-05-05 01:17 37.65444 -109.81071 25947 ft 439 kts 230°
2026-05-05 01:17 37.63324 -109.83833 25935 ft 438 kts 230°
2026-05-05 01:17 37.61203 -109.86598 25940 ft 439 kts 230°
2026-05-05 01:17 37.59082 -109.89361 25940 ft 439 kts 230°
2026-05-05 01:18 37.56955 -109.92130 25932 ft 439 kts 230°
2026-05-05 01:18 37.54826 -109.94897 25919 ft 439 kts 229°
2026-05-05 01:18 37.52698 -109.97661 25911 ft 440 kts 229°
2026-05-05 01:18 37.50570 -110.00423 25900 ft 440 kts 229°
2026-05-05 01:19 37.48442 -110.03182 25913 ft 439 kts 229°
2026-05-05 01:19 37.46287 -110.05974 25881 ft 439 kts 229°
2026-05-05 01:19 37.44156 -110.08731 25888 ft 439 kts 229°
2026-05-05 01:19 37.42028 -110.11482 25891 ft 438 kts 229°
2026-05-05 01:20 37.39904 -110.14228 25887 ft 438 kts 229°
2026-05-05 01:20 37.37777 -110.16974 25881 ft 438 kts 229°
2026-05-05 01:20 37.35653 -110.19715 25878 ft 437 kts 229°
2026-05-05 01:20 37.33559 -110.22414 25869 ft 437 kts 229°
2026-05-05 01:21 37.31438 -110.25145 25869 ft 437 kts 229°
2026-05-05 01:21 37.29321 -110.27866 25870 ft 436 kts 229°
2026-05-05 01:21 37.27202 -110.30590 25861 ft 435 kts 229°
2026-05-05 01:21 37.25086 -110.33307 25858 ft 435 kts 229°
2026-05-05 01:22 37.22974 -110.36015 25863 ft 434 kts 229°
2026-05-05 01:22 37.20863 -110.38722 25864 ft 434 kts 229°
2026-05-05 01:22 37.18751 -110.41429 25862 ft 433 kts 229°
2026-05-05 01:22 37.16644 -110.44125 25855 ft 433 kts 229°
2026-05-05 01:23 37.14540 -110.46817 25860 ft 433 kts 229°
2026-05-05 01:23 37.12428 -110.49501 25852 ft 432 kts 229°
2026-05-05 01:23 37.10324 -110.52176 25864 ft 431 kts 229°
2026-05-05 01:23 37.08222 -110.54868 25861 ft 432 kts 229°
2026-05-05 01:24 37.06126 -110.57552 25857 ft 432 kts 229°
2026-05-05 01:24 37.04020 -110.60239 25865 ft 431 kts 229°
2026-05-05 01:24 37.01915 -110.62919 25852 ft 431 kts 229°
2026-05-05 01:24 36.99813 -110.65592 25859 ft 431 kts 229°
2026-05-05 01:25 36.97706 -110.68268 25856 ft 431 kts 229°
2026-05-05 01:25 36.95600 -110.70938 25842 ft 431 kts 229°
2026-05-05 01:25 36.93497 -110.73603 25858 ft 430 kts 229°
2026-05-05 01:25 36.91395 -110.76265 25862 ft 430 kts 229°
2026-05-05 01:26 36.89295 -110.78930 25876 ft 430 kts 229°
2026-05-05 01:26 36.87174 -110.81611 25875 ft 430 kts 229°
2026-05-05 01:26 36.85093 -110.84244 25875 ft 431 kts 229°
2026-05-05 01:26 36.82973 -110.86910 25871 ft 431 kts 229°
2026-05-05 01:27 36.80865 -110.89566 25875 ft 430 kts 229°
2026-05-05 01:27 36.78767 -110.92216 25869 ft 429 kts 229°
2026-05-05 01:27 36.76669 -110.94861 25869 ft 428 kts 229°
2026-05-05 01:27 36.74580 -110.97496 25871 ft 427 kts 229°
2026-05-05 01:28 36.72519 -111.00090 25873 ft 426 kts 229°
2026-05-05 01:28 36.70406 -111.02743 25875 ft 426 kts 228°
2026-05-05 01:28 36.68347 -111.05325 25881 ft 425 kts 228°
2026-05-05 01:28 36.66263 -111.07938 25883 ft 425 kts 228°
2026-05-05 01:29 36.64179 -111.10549 25878 ft 425 kts 228°
2026-05-05 01:29 36.62095 -111.13160 25885 ft 425 kts 229°
2026-05-05 01:29 36.60010 -111.15771 25879 ft 425 kts 228°
2026-05-05 01:29 36.57925 -111.18379 25882 ft 425 kts 228°
2026-05-05 01:30 36.55838 -111.20985 25877 ft 425 kts 228°
2026-05-05 01:30 36.53751 -111.23591 25885 ft 425 kts 229°
2026-05-05 01:30 36.51668 -111.26192 25888 ft 425 kts 228°
2026-05-05 01:30 36.49578 -111.28800 25889 ft 425 kts 228°
2026-05-05 01:31 36.47489 -111.31400 25894 ft 425 kts 228°
2026-05-05 01:31 36.45402 -111.33996 25897 ft 424 kts 228°
2026-05-05 01:31 36.43316 -111.36589 25897 ft 424 kts 228°
2026-05-05 01:31 36.41232 -111.39179 25902 ft 424 kts 228°
2026-05-05 01:32 36.39151 -111.41764 25901 ft 423 kts 228°
2026-05-05 01:32 36.37070 -111.44335 25895 ft 422 kts 228°
2026-05-05 01:32 36.34987 -111.46915 25918 ft 422 kts 228°
2026-05-05 01:32 36.32914 -111.49491 25928 ft 421 kts 228°
2026-05-05 01:33 36.30846 -111.52054 25932 ft 420 kts 228°
2026-05-05 01:33 36.28775 -111.54615 25941 ft 420 kts 228°
2026-05-05 01:33 36.26710 -111.57166 25949 ft 419 kts 228°
2026-05-05 01:33 36.24647 -111.59711 25956 ft 418 kts 228°
2026-05-05 01:34 36.22612 -111.62221 25956 ft 418 kts 228°
2026-05-05 01:34 36.20552 -111.64761 25970 ft 418 kts 228°
2026-05-05 01:34 36.18494 -111.67296 25974 ft 418 kts 228°
2026-05-05 01:34 36.16435 -111.69834 25969 ft 418 kts 228°
2026-05-05 01:35 36.14375 -111.72375 25992 ft 419 kts 228°
2026-05-05 01:35 36.12307 -111.74911 25996 ft 419 kts 228°
2026-05-05 01:35 36.10267 -111.77477 25996 ft 417 kts 231°
2026-05-05 01:35 36.08515 -111.80253 26012 ft 414 kts 237°
2026-05-05 01:36 36.06935 -111.83289 25996 ft 413 kts 240°
2026-05-05 01:36 36.05529 -111.86372 25993 ft 410 kts 244°
2026-05-05 01:36 36.04380 -111.89595 26036 ft 410 kts 248°
2026-05-05 01:36 36.03329 -111.92883 26034 ft 412 kts 248°
2026-05-05 01:37 36.02312 -111.96112 26019 ft 413 kts 248°
2026-05-05 01:37 36.01266 -111.99455 26027 ft 412 kts 249°
2026-05-05 01:37 36.00228 -112.02764 26033 ft 413 kts 248°
2026-05-05 01:37 35.99189 -112.06023 26027 ft 414 kts 248°
2026-05-05 01:38 35.98127 -112.09332 26029 ft 415 kts 248°
2026-05-05 01:38 35.97094 -112.12548 26033 ft 415 kts 248°
2026-05-05 01:38 35.96219 -112.15266 26029 ft 415 kts 248°
2026-05-05 01:38 35.95154 -112.18578 26029 ft 415 kts 248°
2026-05-05 01:39 35.94090 -112.21883 26027 ft 414 kts 248°
2026-05-05 01:39 35.93028 -112.25177 26024 ft 414 kts 248°
2026-05-05 01:39 35.91963 -112.28478 26029 ft 413 kts 248°
2026-05-05 01:39 35.90899 -112.31770 26028 ft 413 kts 248°
2026-05-05 01:40 35.89833 -112.35063 26026 ft 413 kts 248°
2026-05-05 01:40 35.88769 -112.38346 26026 ft 412 kts 248°
2026-05-05 01:40 35.87704 -112.41628 26029 ft 412 kts 248°
2026-05-05 01:40 35.86637 -112.44911 26023 ft 412 kts 248°
2026-05-05 01:41 35.85573 -112.48187 26026 ft 412 kts 248°
2026-05-05 01:41 35.84507 -112.51462 26026 ft 412 kts 248°
2026-05-05 01:41 35.83438 -112.54744 26025 ft 413 kts 248°
2026-05-05 01:41 35.82366 -112.58033 26029 ft 413 kts 247°
2026-05-05 01:42 35.81291 -112.61319 26029 ft 414 kts 247°
2026-05-05 01:42 35.80216 -112.64607 26024 ft 414 kts 247°
2026-05-05 01:42 35.79141 -112.67892 26019 ft 414 kts 247°
2026-05-05 01:42 35.78064 -112.71183 26019 ft 414 kts 247°
2026-05-05 01:43 35.76985 -112.74474 26017 ft 414 kts 247°
2026-05-05 01:43 35.75905 -112.77764 26018 ft 414 kts 247°
2026-05-05 01:43 35.74826 -112.81048 26021 ft 414 kts 247°
2026-05-05 01:43 35.73741 -112.84340 26024 ft 415 kts 247°
2026-05-05 01:44 35.72660 -112.87619 26025 ft 414 kts 247°
2026-05-05 01:44 35.71580 -112.90897 26018 ft 414 kts 247°
2026-05-05 01:44 35.70496 -112.94181 26011 ft 414 kts 247°
2026-05-05 01:44 35.69410 -112.97468 26011 ft 415 kts 246°
2026-05-05 01:45 35.68322 -113.00754 26011 ft 415 kts 246°
2026-05-05 01:45 35.67233 -113.04039 26008 ft 415 kts 246°
2026-05-05 01:45 35.66144 -113.07325 25997 ft 415 kts 246°
2026-05-05 01:45 35.65056 -113.10606 25994 ft 415 kts 246°
2026-05-05 01:46 35.63966 -113.13888 25991 ft 414 kts 246°
2026-05-05 01:46 35.62877 -113.17160 25984 ft 414 kts 246°
2026-05-05 01:46 35.61788 -113.20431 25981 ft 414 kts 246°
2026-05-05 01:46 35.60698 -113.23705 25982 ft 413 kts 246°
2026-05-05 01:47 35.59606 -113.26971 25975 ft 414 kts 246°
2026-05-05 01:47 35.58511 -113.30234 25972 ft 414 kts 246°
2026-05-05 01:47 35.57414 -113.33505 25973 ft 414 kts 246°
2026-05-05 01:47 35.56317 -113.36770 25966 ft 414 kts 246°
2026-05-05 01:48 35.55220 -113.40034 25962 ft 414 kts 246°
2026-05-05 01:48 35.54122 -113.43301 25968 ft 414 kts 246°
2026-05-05 01:48 35.53021 -113.46570 25958 ft 414 kts 246°
2026-05-05 01:48 35.51921 -113.49834 25954 ft 414 kts 246°
2026-05-05 01:49 35.50820 -113.53095 25948 ft 414 kts 246°
2026-05-05 01:49 35.49719 -113.56355 25948 ft 415 kts 246°
2026-05-05 01:49 35.48608 -113.59633 25959 ft 418 kts 246°
2026-05-05 01:49 35.47493 -113.62924 25955 ft 419 kts 246°
2026-05-05 01:50 35.46376 -113.66192 25938 ft 413 kts 246°
2026-05-05 01:50 35.45275 -113.69437 25936 ft 411 kts 246°
2026-05-05 01:50 35.44183 -113.72667 25939 ft 410 kts 246°
2026-05-05 01:50 35.43090 -113.75897 25936 ft 410 kts 246°
2026-05-05 01:51 35.41992 -113.79130 25923 ft 411 kts 246°
2026-05-05 01:51 35.40894 -113.82358 25934 ft 411 kts 246°
2026-05-05 01:51 35.39792 -113.85593 25938 ft 411 kts 246°
2026-05-05 01:51 35.38688 -113.88829 25938 ft 412 kts 246°
2026-05-05 01:52 35.37579 -113.92074 25934 ft 413 kts 246°
2026-05-05 01:52 35.36468 -113.95320 25937 ft 414 kts 246°
2026-05-05 01:52 35.35354 -113.98574 25941 ft 414 kts 246°
2026-05-05 01:52 35.34252 -114.01790 25925 ft 415 kts 246°
2026-05-05 01:53 35.33497 -114.03991 25921 ft 415 kts 245°
2026-05-05 01:53 35.32379 -114.07245 25918 ft 414 kts 245°
2026-05-05 01:53 35.30901 -114.11546 25926 ft 414 kts 245°
2026-05-05 01:53 35.29782 -114.14796 25912 ft 414 kts 245°
2026-05-05 01:54 35.29026 -114.16988 25923 ft 414 kts 245°
2026-05-05 01:54 35.27906 -114.20237 25915 ft 414 kts 245°
2026-05-05 01:54 35.26784 -114.23486 25896 ft 414 kts 245°
2026-05-05 01:54 35.25663 -114.26730 25891 ft 415 kts 245°
2026-05-05 01:55 35.24539 -114.29981 25888 ft 414 kts 245°
2026-05-05 01:55 35.23417 -114.33222 25879 ft 414 kts 245°
2026-05-05 01:55 35.22295 -114.36461 25871 ft 414 kts 245°
2026-05-05 01:55 35.21172 -114.39698 25857 ft 413 kts 245°
2026-05-05 01:56 35.20048 -114.42935 25850 ft 414 kts 245°
2026-05-05 01:56 35.18921 -114.46176 25839 ft 414 kts 245°
2026-05-05 01:56 35.17794 -114.49413 25839 ft 414 kts 245°
2026-05-05 01:56 35.16666 -114.52652 25828 ft 414 kts 245°
2026-05-05 01:57 35.15539 -114.55887 25827 ft 414 kts 245°
2026-05-05 01:57 35.14408 -114.59128 25813 ft 414 kts 245°
2026-05-05 01:57 35.13277 -114.62363 25818 ft 414 kts 245°
2026-05-05 01:57 35.12152 -114.65593 25825 ft 414 kts 245°
2026-05-05 01:58 35.11026 -114.68836 25825 ft 414 kts 245°
2026-05-05 01:58 35.09907 -114.72069 25820 ft 414 kts 245°
2026-05-05 01:58 35.08790 -114.75293 25832 ft 413 kts 245°
2026-05-05 01:58 35.07669 -114.78525 25826 ft 414 kts 245°
2026-05-05 01:59 35.06561 -114.81715 25840 ft 414 kts 245°
2026-05-05 01:59 35.05422 -114.84987 25828 ft 414 kts 245°
2026-05-05 01:59 35.04296 -114.88217 25832 ft 413 kts 245°
2026-05-05 01:59 35.03151 -114.91427 25834 ft 412 kts 243°
2026-05-05 02:00 35.01877 -114.94553 25846 ft 411 kts 241°
2026-05-05 02:00 35.00531 -114.97627 25840 ft 411 kts 240°
2026-05-05 02:00 34.99182 -115.00652 25847 ft 412 kts 240°
2026-05-05 02:00 34.97818 -115.03719 25856 ft 412 kts 240°
2026-05-05 02:01 34.96460 -115.06799 25853 ft 412 kts 240°
2026-05-05 02:01 34.95110 -115.09881 25852 ft 412 kts 240°
2026-05-05 02:01 34.93764 -115.12967 25847 ft 412 kts 240°
2026-05-05 02:01 34.92422 -115.16050 25857 ft 412 kts 240°
2026-05-05 02:02 34.91078 -115.19140 25855 ft 412 kts 240°
2026-05-05 02:02 34.89718 -115.22268 25850 ft 412 kts 240°
2026-05-05 02:02 34.88375 -115.25351 25853 ft 412 kts 240°
2026-05-05 02:02 34.87031 -115.28432 25860 ft 412 kts 240°
2026-05-05 02:03 34.85686 -115.31513 25868 ft 412 kts 240°
2026-05-05 02:03 34.84343 -115.34588 25870 ft 411 kts 240°
2026-05-05 02:03 34.83001 -115.37657 25870 ft 411 kts 240°
2026-05-05 02:03 34.81675 -115.40688 25873 ft 411 kts 240°
2026-05-05 02:04 34.80314 -115.43792 25878 ft 410 kts 240°
2026-05-05 02:04 34.79003 -115.46819 25879 ft 410 kts 241°
2026-05-05 02:04 34.77783 -115.49957 25878 ft 410 kts 243°
2026-05-05 02:04 34.76630 -115.53135 25879 ft 410 kts 244°
2026-05-05 02:05 34.75495 -115.56313 25887 ft 410 kts 244°
2026-05-05 02:05 34.74356 -115.59485 25896 ft 410 kts 244°
2026-05-05 02:05 34.73205 -115.62657 25894 ft 410 kts 244°
2026-05-05 02:05 34.72046 -115.65823 25903 ft 410 kts 243°
2026-05-05 02:06 34.70882 -115.68985 25914 ft 410 kts 243°
2026-05-05 02:06 34.69715 -115.72144 25897 ft 410 kts 243°
2026-05-05 02:06 34.68546 -115.75305 25917 ft 410 kts 243°
2026-05-05 02:06 34.67377 -115.78463 25912 ft 410 kts 243°
2026-05-05 02:07 34.66208 -115.81616 25925 ft 409 kts 243°
2026-05-05 02:07 34.65039 -115.84769 25918 ft 410 kts 243°
2026-05-05 02:07 34.63869 -115.87922 25920 ft 409 kts 243°
2026-05-05 02:07 34.62701 -115.91072 25924 ft 409 kts 243°
2026-05-05 02:08 34.61541 -115.94216 25922 ft 408 kts 243°
2026-05-05 02:08 34.60381 -115.97361 25933 ft 408 kts 243°
2026-05-05 02:08 34.59224 -116.00504 25932 ft 408 kts 243°
2026-05-05 02:08 34.58064 -116.03647 25936 ft 407 kts 243°
2026-05-05 02:09 34.56907 -116.06782 25935 ft 407 kts 243°
2026-05-05 02:09 34.55748 -116.09916 25942 ft 407 kts 243°
2026-05-05 02:09 34.54589 -116.13046 25933 ft 406 kts 243°
2026-05-05 02:09 34.53439 -116.16170 25947 ft 406 kts 243°
2026-05-05 02:10 34.52278 -116.19295 25952 ft 406 kts 243°
2026-05-05 02:10 34.51115 -116.22413 25953 ft 406 kts 243°
2026-05-05 02:10 34.49955 -116.25529 25967 ft 406 kts 243°
2026-05-05 02:10 34.48800 -116.28632 25890 ft 400 kts 243°
2026-05-05 02:11 34.47669 -116.31678 25745 ft 392 kts 243°
2026-05-05 02:11 34.46559 -116.34658 25653 ft 384 kts 243°
2026-05-05 02:11 34.45467 -116.37591 25435 ft 380 kts 243°
2026-05-05 02:11 34.44419 -116.40398 25139 ft 378 kts 243°
2026-05-05 02:12 34.43339 -116.43292 24772 ft 375 kts 243°
2026-05-05 02:12 34.41186 -116.49012 24080 ft 373 kts 242°
2026-05-05 02:12 34.40046 -116.51806 23997 ft 377 kts 242°
2026-05-05 02:13 34.38845 -116.54674 23987 ft 376 kts 242°
2026-05-05 02:13 34.37685 -116.57448 23980 ft 373 kts 242°
2026-05-05 02:13 34.36536 -116.60215 23989 ft 371 kts 242°
2026-05-05 02:13 34.35389 -116.62993 23988 ft 356 kts 242°
2026-05-05 02:14 34.34288 -116.65663 24021 ft 359 kts 242°
2026-05-05 02:14 34.33162 -116.68390 23921 ft 364 kts 242°
2026-05-05 02:14 34.32090 -116.71033 23513 ft 366 kts 242°
2026-05-05 02:14 34.31026 -116.73680 22885 ft 371 kts 242°
2026-05-05 02:15 34.29924 -116.76428 22551 ft 370 kts 243°
2026-05-05 02:15 34.28801 -116.79239 22117 ft 371 kts 243°
2026-05-05 02:15 34.27701 -116.81979 21747 ft 372 kts 243°
2026-05-05 02:15 34.26571 -116.84783 21411 ft 372 kts 243°
2026-05-05 02:16 34.25453 -116.87556 21089 ft 372 kts 243°
2026-05-05 02:16 34.24319 -116.90368 20770 ft 371 kts 243°
2026-05-05 02:16 34.23187 -116.93169 20452 ft 371 kts 243°
2026-05-05 02:16 34.22053 -116.95969 20110 ft 371 kts 243°
2026-05-05 02:17 34.20941 -116.98774 19801 ft 371 kts 245°
2026-05-05 02:17 34.20051 -117.01697 19514 ft 372 kts 250°
2026-05-05 02:17 34.19293 -117.04689 19218 ft 372 kts 251°
2026-05-05 02:17 34.18547 -117.07682 18948 ft 372 kts 251°
2026-05-05 02:18 34.17772 -117.10660 18622 ft 372 kts 251°
2026-05-05 02:18 34.16963 -117.13665 18103 ft 370 kts 251°
2026-05-05 02:18 34.16174 -117.16565 17583 ft 367 kts 250°
2026-05-05 02:18 34.15372 -117.19480 17077 ft 364 kts 250°
2026-05-05 02:19 34.14564 -117.22405 16559 ft 361 kts 250°
2026-05-05 02:19 34.13771 -117.25273 16036 ft 359 kts 250°
2026-05-05 02:19 34.12985 -117.28125 15522 ft 356 kts 250°
2026-05-05 02:19 34.12199 -117.30979 15017 ft 354 kts 250°
2026-05-05 02:20 34.11434 -117.33751 14525 ft 351 kts 250°
2026-05-05 02:20 34.10664 -117.36537 14032 ft 348 kts 250°
2026-05-05 02:20 34.09935 -117.39297 13672 ft 342 kts 252°
2026-05-05 02:20 34.09265 -117.42018 13328 ft 335 kts 252°
2026-05-05 02:21 34.08606 -117.44692 12984 ft 329 kts 252°
2026-05-05 02:21 34.07952 -117.47312 12650 ft 323 kts 252°
2026-05-05 02:21 34.07299 -117.49913 12329 ft 317 kts 251°
2026-05-05 02:21 34.06524 -117.52371 12014 ft 310 kts 246°
2026-05-05 02:22 34.05652 -117.54719 11700 ft 304 kts 245°
2026-05-05 02:22 34.04780 -117.57026 11409 ft 301 kts 245°
2026-05-05 02:22 34.03927 -117.59323 11119 ft 299 kts 246°
2026-05-05 02:22 34.03092 -117.61610 10816 ft 296 kts 246°
2026-05-05 02:23 34.02327 -117.63723 10534 ft 290 kts 246°
2026-05-05 02:23 34.01532 -117.65927 10246 ft 284 kts 246°
2026-05-05 02:23 34.00767 -117.68098 9962 ft 277 kts 250°
2026-05-05 02:23 34.00367 -117.70326 9678 ft 269 kts 262°
2026-05-05 02:24 34.00180 -117.72558 9401 ft 266 kts 264°
2026-05-05 02:24 34.00062 -117.74012 9213 ft 263 kts 264°
2026-05-05 02:24 33.99819 -117.76937 8851 ft 261 kts 264°
2026-05-05 02:24 33.99620 -117.79113 8565 ft 261 kts 263°
2026-05-05 02:25 33.99412 -117.81285 8308 ft 261 kts 263°
2026-05-05 02:25 33.99204 -117.83455 8027 ft 261 kts 263°
2026-05-05 02:25 33.98994 -117.85623 7752 ft 261 kts 263°
2026-05-05 02:25 33.98788 -117.87798 7475 ft 262 kts 264°
2026-05-05 02:26 33.98626 -117.89981 7199 ft 262 kts 265°
2026-05-05 02:26 33.98454 -117.92159 6930 ft 258 kts 264°
2026-05-05 02:26 33.98257 -117.94256 6635 ft 252 kts 263°
2026-05-05 02:26 33.98046 -117.96336 6394 ft 249 kts 263°
2026-05-05 02:27 33.97835 -117.98393 6164 ft 248 kts 263°
2026-05-05 02:27 33.97712 -117.99601 5984 ft 250 kts 263°
2026-05-05 02:27 33.97545 -118.01229 5783 ft 251 kts 263°
2026-05-05 02:27 33.97332 -118.03296 5534 ft 248 kts 263°
2026-05-05 02:28 33.97125 -118.05328 5241 ft 242 kts 263°
2026-05-05 02:28 33.96920 -118.07309 4966 ft 235 kts 263°
2026-05-05 02:28 33.96722 -118.09242 4663 ft 229 kts 263°
2026-05-05 02:28 33.96529 -118.11116 4346 ft 214 kts 263°
2026-05-05 02:29 33.96355 -118.12816 4082 ft 196 kts 263°
2026-05-05 02:29 33.96194 -118.14376 3883 ft 181 kts 263°
2026-05-05 02:29 33.96039 -118.15880 3701 ft 184 kts 263°
2026-05-05 02:29 33.95885 -118.17390 3470 ft 181 kts 263°
2026-05-05 02:30 33.95734 -118.18866 3246 ft 176 kts 263°
2026-05-05 02:30 33.95626 -118.19903 3067 ft 173 kts 263°
2026-05-05 02:30 33.95483 -118.21288 2850 ft 173 kts 263°
2026-05-05 02:30 33.95357 -118.22517 2658 ft 174 kts 263°
2026-05-05 02:31 33.95231 -118.23754 2464 ft 173 kts 263°
2026-05-05 02:31 33.95118 -118.24852 2280 ft 172 kts 263°
2026-05-05 02:31 33.94987 -118.26129 2074 ft 171 kts 263°
2026-05-05 02:31 33.94854 -118.27408 1868 ft 169 kts 263°
2026-05-05 02:32 33.94771 -118.28224 1735 ft 169 kts 263°
2026-05-05 02:32 33.94682 -118.29102 1607 ft 169 kts 263°
2026-05-05 02:32 33.94561 -118.30303 1427 ft 167 kts 264°
2026-05-05 02:32 33.94506 -118.30848 1330 ft 169 kts 263°
2026-05-05 02:33 33.94393 -118.31884 1126 ft 169 kts 263°
2026-05-05 02:33 33.94323 -118.32545 1056 ft 168 kts 263°
2026-05-05 02:33 33.94230 -118.33491 942 ft 165 kts 264°
2026-05-05 02:33 33.94208 -118.33719 908 ft 162 kts 263°
2026-05-05 02:34 33.94117 -118.34575 751 ft 154 kts 263°
2026-05-05 02:34 33.93987 -118.35813 493 ft 144 kts 263°
2026-05-05 02:34 33.93874 -118.37005 347 ft 145 kts 262°
2026-05-05 02:34 33.93759 -118.38141 158 ft 148 kts 261°
2026-05-05 02:35 33.93641 -118.39189 97 ft 134 kts 264°
2026-05-05 02:35 33.93558 -118.40036 100 ft 84 kts 263°
2026-05-05 02:35 33.93508 -118.40504 101 ft 43 kts 262°
2026-05-05 02:35 33.93433 -118.40734 99 ft 25 kts 179°
2026-05-05 02:36 33.93377 -118.40607 99 ft 23 kts 88°
2026-05-05 02:36 33.93393 -118.40442 97 ft 23 kts 83°
2026-05-05 02:36 33.93412 -118.40256 98 ft 23 kts 83°
2026-05-05 02:36 33.93429 -118.40079 98 ft 23 kts 83°
2026-05-05 02:37 33.93446 -118.39892 98 ft 23 kts 84°
2026-05-05 02:37 33.93465 -118.39729 100 ft 23 kts 83°
2026-05-05 02:37 33.93482 -118.39561 98 ft 23 kts 83°
2026-05-05 02:37 33.93499 -118.39391 98 ft 23 kts 83°
2026-05-05 02:38 33.93518 -118.39205 98 ft 23 kts 82°
2026-05-05 02:38 33.93538 -118.39021 98 ft 22 kts 83°
2026-05-05 02:38 33.93552 -118.38874 99 ft 11 kts 84°
2026-05-05 02:38 33.93522 -118.38801 98 ft 11 kts 156°
2026-05-05 02:39 33.93485 -118.38737 97 ft 5 kts 103°
2026-05-05 02:39 33.93458 -118.38715 100 ft 6 kts 156°
2026-05-05 02:39 33.93426 -118.38708 97 ft 3 kts 173°
2026-05-05 02:39 33.93415 -118.38707 97 ft 0 kts 173°